Theta_e
308 308 307 307 307 306 306 306 305 306 306 306 307 307 309 311 313 314 313 310 314 314 314 315 316 317 315 317 317 319 322 322 323 323 324 321 321 320 318 319 319 319 320 320 319
308 308 309 309 308 306 307 307 307 306 306 306 306 307 312 315 317 315 314 313 314 313 316 316 316 316 316 317 317 319 320 321 322 321 321 319 318 318 318 319 319 319 319 319 319
309 310 310 311 310 309 311 311 311 309 308 307 306 308 314 316 318 316 313 313 313 313 314 316 316 316 317 316 317 318 318 319 318 317 316 317 317 317 317 319 319 319 318 318 318
308 310 311 312 312 311 311 311 311 310 307 306 306 312 315 316 319 315 313 313 313 313 315 314 315 316 317 318 316 317 317 317 317 316 315 317 316 316 317 317 317 317 317 317 317
307 307 311 312 311 309 310 311 311 310 308 307 312 317 316 317 315 313 313 313 314 315 314 314 315 315 317 315 315 316 316 315 315 315 315 314 315 315 315 315 315 315 315 316 316
309 308 308 312 311 311 310 311 311 310 312 310 313 314 316 316 313 312 312 314 314 314 315 314 314 313 314 314 315 314 314 314 314 314 314 315 315 315 315 315 315 316 316 316 316
310 311 310 312 312 310 310 311 312 312 312 311 313 315 315 314 313 313 312 314 312 313 314 313 313 314 314 316 314 314 315 316 316 315 315 315 315 317 316 315 315 316 316 316 316
310 311 311 312 312 309 310 312 313 312 312 314 314 315 314 312 312 313 314 315 313 313 313 313 313 313 314 313 314 315 315 318 317 316 315 315 317 318 316 316 317 317 316 316 316
310 311 312 311 313 308 312 311 312 314 314 314 315 317 315 312 313 312 313 314 313 312 313 312 313 313 314 315 316 316 317 317 317 315 316 316 317 318 316 316 317 317 316 317 317
310 310 311 311 312 312 312 311 311 313 312 312 312 315 312 313 312 312 312 312 313 313 314 313 314 316 316 316 317 316 316 317 317 318 318 318 318 319 318 317 317 318 317 316 316
310 310 310 311 311 314 312 312 315 314 312 312 313 313 312 311 312 313 312 312 313 313 315 314 315 316 315 315 314 314 315 316 317 318 317 319 319 319 319 318 319 318 318 318 318
313 311 310 310 310 310 314 313 312 311 313 311 312 311 311 311 312 313 313 313 313 314 314 315 316 315 314 313 313 314 315 317 318 318 318 319 320 321 321 320 319 319 319 319 319
313 312 311 310 310 311 312 312 312 311 316 311 310 312 311 311 313 313 313 314 314 314 315 315 316 314 313 314 315 317 317 318 318 318 319 320 321 321 321 320 319 318 318 318 318
313 312 312 311 312 311 311 313 314 313 318 312 311 312 312 311 312 312 313 314 314 315 315 316 314 315 316 317 317 318 317 317 318 320 321 320 322 322 321 320 320 319 319 318 317
312 312 312 311 311 312 310 313 315 314 322 311 312 311 311 311 311 313 313 315 316 317 317 317 317 317 317 317 317 318 317 318 318 320 320 321 322 322 321 320 320 319 318 317 317
308 311 311 311 312 310 310 314 315 320 318 312 312 313 313 312 312 312 313 315 316 316 317 317 315 317 318 317 317 316 317 319 320 320 322 322 321 321 321 320 319 319 318 317 317
304 312 312 313 312 311 310 314 318 317 313 314 313 313 313 313 312 313 314 317 318 318 317 317 317 316 315 317 317 317 320 324 324 323 324 320 320 321 320 319 318 318 317 317 317
305 312 312 312 311 309 311 317 318 313 314 313 313 313 313 313 312 312 314 316 317 316 317 317 318 316 315 315 317 317 318 323 325 323 322 320 320 322 318 317 316 316 318 318 318
308 312 315 313 310 310 313 318 317 315 313 313 314 314 314 313 311 313 313 315 315 315 316 318 317 316 315 315 315 318 319 318 319 320 322 321 320 320 320 318 317 317 317 317 317
309 313 314 313 310 312 317 314 315 312 313 313 315 313 314 313 312 312 313 314 314 314 314 316 318 316 315 315 316 316 317 320 320 324 324 321 321 321 320 319 318 318 317 316 316
310 315 312 312 311 315 318 316 314 312 312 314 314 314 314 314 312 312 313 312 314 313 314 316 316 317 317 317 318 317 318 317 319 320 323 323 320 320 319 319 318 317 316 315 314
313 316 310 313 317 314 316 314 310 313 311 312 313 314 314 312 313 313 313 312 313 313 313 314 316 318 318 317 316 317 318 318 324 321 323 323 322 318 317 317 316 315 314 313 311
312 313 310 313 315 316 316 314 312 313 312 312 313 312 313 313 317 313 312 311 312 311 312 313 317 319 319 320 318 319 318 317 318 319 321 321 320 318 318 316 315 313 312 310 309
312 314 311 310 311 315 314 317 316 311 312 311 314 312 313 314 314 315 314 313 311 310 310 311 315 317 321 319 318 319 318 317 320 319 322 321 320 318 317 315 313 311 310 309 308
309 312 310 312 312 312 313 312 315 315 313 313 315 312 314 312 316 316 312 312 311 310 311 315 318 317 316 316 315 316 316 318 319 318 319 320 319 317 314 313 311 309 308 308 307
309 309 308 309 310 311 310 314 313 314 314 313 315 315 315 316 316 316 315 314 314 311 313 314 319 317 318 316 316 317 317 317 318 318 318 317 316 313 312 310 308 307 307 305 304
305 307 307 308 309 310 311 312 312 312 311 312 314 315 315 314 311 312 311 311 312 313 313 312 315 316 317 316 316 319 319 317 316 314 315 316 314 313 312 308 306 306 305 304 303
Wind_Speed
18 16 16 14 12 11 9 7 5 3 2 2 2 3 6 13 13 13 9 7 9 8 7 5 3 3 4 3 2 2 6 11 13 9 3 3 6 4 8 14 9 10 11 9 9
17 16 14 13 12 12 11 10 8 5 3 2 2 5 14 16 16 13 13 13 12 9 5 2 4 4 3 3 2 7 8 8 6 4 7 6 9 12 11 13 14 12 10 10 11
17 16 14 14 12 10 9 9 8 6 3 2 4 8 19 15 9 8 10 11 11 12 8 4 4 2 3 3 1 1 8 4 5 3 7 12 13 10 14 16 14 13 14 14 15
18 17 14 12 13 11 8 10 8 6 6 5 6 11 17 5 2 5 12 13 12 10 5 4 2 3 3 4 1 8 2 5 3 9 13 14 16 16 18 21 19 18 19 18 17
22 18 14 11 12 14 9 8 3 4 5 8 12 15 13 10 11 10 10 9 9 7 6 3 4 0 2 0 3 8 3 6 10 14 17 18 19 20 21 19 21 19 19 19 17
25 20 14 12 12 15 12 8 10 4 4 8 14 17 10 15 7 7 8 6 5 5 6 7 6 3 1 2 6 1 9 13 14 13 11 13 17 14 13 11 11 13 15 16 17
25 20 17 15 15 16 13 10 8 8 9 17 19 17 14 9 5 3 3 2 5 4 3 4 3 3 4 3 1 7 12 10 9 6 10 8 17 21 18 16 18 17 19 19 21
24 18 18 18 18 14 10 12 14 15 22 24 17 12 12 8 7 4 0 1 2 1 1 0 1 2 3 2 10 10 7 7 10 10 8 5 17 14 8 13 22 22 25 25 25
21 17 18 20 22 14 11 14 14 16 15 13 7 4 8 8 7 6 3 1 2 1 2 3 2 4 7 7 9 8 7 11 8 11 8 12 19 14 15 22 25 29 29 29 30
17 16 13 18 19 13 12 16 17 12 10 8 6 6 10 4 5 7 4 1 2 5 6 4 5 8 9 6 8 11 14 12 14 8 17 20 24 19 19 21 26 28 29 31 33
13 13 10 11 16 14 3 3 2 5 16 13 9 8 7 9 5 9 10 6 5 7 8 6 9 7 9 7 9 12 15 16 16 13 15 21 26 23 23 24 25 28 29 31 31
15 10 12 10 11 13 8 3 3 5 8 8 10 8 7 11 3 11 12 5 8 10 7 9 9 4 7 10 11 14 16 17 15 10 16 21 31 26 20 14 18 21 25 26 23
16 6 13 11 3 11 8 5 9 7 2 4 5 8 10 7 3 10 13 10 8 9 8 9 11 10 9 11 11 14 16 17 20 18 17 15 21 3 14 11 12 10 12 15 17
15 8 11 11 4 9 4 1 7 6 5 3 2 4 8 2 3 4 11 6 4 7 8 7 2 6 11 14 13 17 10 12 17 14 12 12 13 18 8 8 7 10 12 14 14
14 9 11 8 5 6 8 4 8 3 4 3 3 2 3 10 8 4 11 4 6 8 5 4 9 12 14 10 9 11 10 14 17 18 20 18 10 6 7 6 6 8 9 3 3
13 5 7 9 9 8 5 7 5 5 1 2 1 5 6 9 3 9 7 4 4 6 5 10 9 4 5 7 7 12 15 19 21 14 11 14 12 10 4 7 10 14 12 14 15
16 2 4 11 9 6 1 4 5 3 2 3 4 6 5 8 2 9 8 6 6 6 6 11 4 1 6 10 10 6 13 7 5 8 9 6 10 16 17 9 12 11 14 12 12
16 3 5 12 12 4 5 5 4 3 3 2 4 5 4 10 5 11 8 3 4 6 11 7 2 2 2 11 9 15 8 6 7 9 15 21 9 2 3 11 12 10 10 9 6
10 4 5 13 8 2 5 2 4 2 3 6 5 3 1 3 6 7 7 3 3 4 7 6 5 14 11 5 5 4 7 8 12 18 16 11 15 16 16 7 10 9 8 11 11
7 6 9 12 5 2 3 3 2 1 3 2 3 2 5 8 6 10 4 2 1 2 4 5 9 7 4 12 15 13 7 4 4 5 13 12 19 11 11 14 14 14 17 18 19
6 2 12 8 4 1 1 3 2 3 2 2 2 5 4 7 7 7 3 2 2 4 5 10 5 6 17 6 10 5 8 7 6 8 7 12 8 18 22 16 15 14 24 28 32
6 1 16 6 1 3 3 2 2 1 1 2 4 4 5 4 7 5 5 2 1 7 11 9 6 14 22 21 14 16 17 14 6 10 7 10 20 8 1 12 19 24 26 31 34
6 4 10 8 3 4 2 2 2 2 2 2 3 3 2 5 3 8 8 3 5 11 4 6 4 8 9 5 2 6 6 12 15 10 17 13 14 13 25 26 31 33 33 34 36
5 2 6 12 7 4 4 1 2 2 5 3 6 5 5 7 9 9 10 6 2 10 15 11 9 15 11 17 18 22 23 21 17 6 18 19 32 29 27 27 26 32 34 37 41
8 4 4 4 4 7 3 2 4 3 3 5 4 4 2 3 13 12 5 6 15 13 8 6 9 15 20 23 24 25 27 27 22 22 17 25 27 29 26 24 29 36 38 39 37
6 6 6 5 5 6 2 1 6 1 4 5 9 5 8 11 11 15 19 15 11 9 7 3 6 11 19 21 23 25 26 23 24 21 23 23 28 24 28 31 33 38 38 37 37
8 6 4 2 3 4 3 3 5 7 9 9 11 13 16 16 16 18 25 30 23 17 14 5 3 3 11 14 20 18 7 5 11 12 14 16 26 25 20 22 32 39 39 36 37
Wind_Direction
40 39 30 28 34 43 47 52 58 60 65 75 78 91 89 111 89 60 56 79 87 78 81 57 115 134 146 174 164 194 246 247 247 250 225 145 295 266 299 282 281 289 285 297 315
39 43 45 37 32 37 46 44 37 34 35 71 99 120 124 113 91 69 79 81 78 72 56 76 103 145 168 168 171 240 246 272 23 340 284 295 287 303 294 281 276 274 275 287 302
43 44 42 48 48 51 49 39 24 21 36 76 114 128 138 121 123 53 97 85 87 81 72 87 113 157 167 183 172 185 271 89 200 292 292 291 281 282 282 277 275 290 285 291 295
38 38 49 53 45 36 28 11 356 20 45 90 113 131 148 107 90 104 100 85 75 69 48 64 183 188 199 193 198 250 236 255 267 283 287 280 290 271 265 273 278 277 280 287 286
27 24 32 41 39 25 5 353 16 84 63 86 116 127 123 105 99 108 91 74 59 50 55 60 66 174 207 181 256 253 181 247 268 276 279 285 273 275 275 268 270 274 274 273 274
19 15 19 31 22 15 18 53 83 109 115 115 122 121 123 96 109 92 70 48 46 46 43 42 33 19 85 307 283 69 279 277 273 278 271 270 279 274 269 273 258 267 271 264 268
22 30 37 29 10 6 29 66 41 113 112 128 120 98 99 94 120 129 111 83 51 55 58 40 21 327 337 253 270 290 280 270 246 210 287 308 269 252 261 262 269 273 266 255 266
21 34 30 25 17 12 48 53 74 94 110 120 119 97 86 73 67 42 75 102 52 102 142 215 266 280 287 270 238 261 246 254 146 257 271 244 282 278 290 257 273 276 278 268 264
16 25 30 29 25 36 75 74 83 98 108 117 102 102 85 47 40 26 53 197 287 238 290 243 259 289 226 264 265 199 301 304 301 200 274 267 291 276 269 263 270 274 271 267 266
15 21 30 30 31 51 91 76 72 96 102 95 46 158 53 26 34 27 19 10 273 282 243 235 275 263 242 296 306 313 303 302 297 305 297 292 284 287 289 273 267 265 264 264 264
6 15 12 14 30 39 157 27 119 115 64 63 55 70 46 3 27 4 355 317 298 279 278 329 293 291 335 306 299 292 288 293 297 314 298 298 292 294 291 278 269 264 257 257 260
7 4 4 357 17 25 40 103 90 137 96 57 51 44 14 351 312 6 6 329 306 294 309 258 267 343 318 284 280 282 287 287 304 305 318 302 294 297 279 270 265 269 268 262 262
5 5 4 5 18 21 49 103 137 140 220 68 42 24 3 353 39 356 359 326 284 280 282 284 302 336 284 289 285 279 288 297 302 311 282 295 291 166 338 285 290 283 287 271 255
2 2 10 16 59 19 3 271 177 176 228 55 23 25 358 33 196 17 353 323 265 312 315 277 43 296 291 289 293 290 329 309 297 304 301 333 294 297 315 311 276 281 288 270 252
359 353 3 29 44 13 349 125 163 189 237 64 52 356 6 29 325 34 356 331 311 316 284 40 312 314 294 310 312 291 325 296 290 282 289 276 253 287 275 303 347 329 341 331 237
354 3 15 28 17 3 11 137 146 227 134 121 354 345 345 15 22 345 350 351 293 302 261 281 309 288 334 303 280 312 289 287 266 266 259 258 230 280 287 341 310 313 315 316 322
349 234 32 13 345 333 103 172 225 283 145 52 342 338 338 349 351 359 350 39 27 326 352 319 199 231 306 316 305 267 311 303 270 205 253 142 270 256 288 306 316 316 315 317 318
352 269 288 343 354 5 152 221 255 49 28 47 321 324 343 3 3 347 348 7 83 354 310 343 191 24 13 307 292 300 290 281 293 298 306 314 262 62 273 301 291 329 327 335 332
4 104 19 346 353 49 222 259 29 57 7 333 306 298 30 2 336 328 356 327 5 358 356 322 260 319 309 320 255 43 245 1 289 273 265 248 248 243 252 245 272 287 312 294 308
28 133 4 356 14 96 251 75 111 84 337 299 321 333 324 342 328 341 320 102 324 300 347 331 300 299 313 289 254 242 321 271 229 279 299 293 296 295 356 324 309 306 300 305 309
54 189 351 353 51 55 65 75 136 93 331 279 307 290 298 319 322 321 287 274 245 335 298 295 271 272 296 255 294 238 237 231 299 277 284 300 288 342 316 325 338 329 332 316 303
32 227 353 42 304 29 61 13 342 253 248 277 276 279 284 314 296 288 261 267 294 314 304 307 288 287 289 288 275 268 264 262 251 266 252 282 283 294 232 334 312 308 302 309 311
6 350 360 30 31 50 67 175 255 260 297 269 258 248 282 283 282 270 276 303 267 292 305 14 256 300 301 152 153 241 281 273 271 275 256 269 269 304 318 320 325 321 319 311 306
357 343 27 45 55 358 357 178 268 249 276 270 291 277 269 270 243 267 270 296 249 292 290 297 235 242 260 286 307 293 288 283 264 245 279 269 289 296 309 320 324 320 317 314 309
14 48 13 350 49 345 304 306 274 284 264 263 214 245 300 273 312 265 271 279 282 299 248 238 256 253 257 268 277 276 276 275 266 267 261 284 285 299 320 323 324 319 315 311 308
22 358 337 304 308 305 100 190 288 260 273 264 258 246 288 270 233 279 291 293 282 264 247 266 265 288 277 281 272 274 277 275 274 277 283 294 291 303 319 317 318 315 311 309 302
19 349 330 311 307 287 5 319 302 306 281 262 285 288 289 297 299 283 282 278 267 262 266 267 253 257 282 297 308 285 293 277 268 283 282 283 292 308 312 315 310 308 305 299 297